Location: Igri�s
(42.2144°N, 0.4320°W)
Time: 10:17:22
(UTC+00:00)

GP-B - Pass Details

Date: 13 August 2020
Orbit: 632 x 635 km, 89.8° (Epoch: 18 September)

Event Time Altitude Azimuth Distance (km) Brightness Sun altitude
Rises 19:56:26 0° 16° (NNE) 2,940 6.7 -9.5°
Reaches altitude 10° 19:59:06 10° 31° (NNE) 2,026 5.7 -9.9°
Maximum altitude 20:02:35 22° 83° (E) 1,387 4.4 -10.5°
Enters shadow 20:04:55 15° 123° (ESE) 1,702 4.6 -10.9°
